sat.trackr.live / text

‹ back to catalog

STARLINK-11332 [DTC]

NORAD 61539 · 2024-184H

PAYLOAD ACTIVE UNKNOWN

§ Identity

Operator
Country
US
Launch date
2024-10-15
Launch site
AFWTR
Launch vehicle
Mass (kg)
RCS (m²)

Purposes: comms

External: N2YO · Heavens-Above · Gunter

§ Orbital elements

Epoch: 2026-05-24T21:57:57.860064Z

Period
91.74 min
Inclination
53.1591°
Eccentricity
0.0001066
Mean motion
15.69708278 rev/d
Perigee alt
359.0 km
Apogee alt
360.4 km
Semi-major
6,737.9 km
B*
9.7378e-6
RAAN
220.2064°
Arg perigee
64.5028°
Mean anomaly
295.6100°
Rev number
9,239

§ Raw data

STARLINK-11332 [DTC]1 61539U 24184H   26144.91525301  .00000591  00000+0  97378-5 0  99992 61539  53.1591 220.2064 0001066  64.5028 295.6100 15.69708278 92393

JSON: /api/v1/satellites/61539 · /tle

For live sub-satellite position, see the globe view (requires WebGL).

§ Visibility from observer

Set your observer location to see the next 7 days of passes ≥ 10°. The values pass through the URL so the page stays shareable.

No JS? Fill the form by hand. The geolocation button needs JavaScript.